This demonstration page uses our WeatherBlox Daily Observations layout. Learn more.

Left ArrowRight Arrow

34.74481, -87.66753

Hourly Observations for February 9, 2020

Temp ( °F °C ) Dew Point ( °F °C ) Humidity (%) Winds ( mph kmh ) Pressure ( in mb ) Visibility ( mi km ) Precip ( " mm )
12:53 am 00:53 Clear 36 2.2 31 -0.6 82 82 E 5 7 30.32 1027 10 16 0.00 0.00
1:53 am 01:53 Clear 35 1.7 31 -0.6 85 85 Calm 30.32 1027 10 16 0.00 0.00
2:53 am 02:53 Clear 36 2.2 31 -0.6 82 82 Calm 30.32 1027 10 16 0.00 0.00
3:53 am 03:53 Clear 34 1.1 30 -1.1 85 85 E 5 7 30.32 1027 10 16 0.00 0.00
4:53 am 04:53 Partly Cloudy 36 2.2 31 -0.6 82 82 SE 8 13 30.32 1027 10 16 0.00 0.00
5:53 am 05:53 Clear 38 3.3 29 -1.7 70 70 NE 3 6 30.35 1028 10 16 0.00 0.00
6:53 am 06:53 Sunny 37 2.8 29 -1.7 73 73 ENE 3 6 30.36 1028 10 16 0.00 0.00
7:53 am 07:53 Sunny 41 5 32 0 70 70 ESE 7 11 30.36 1028 10 16 0.00 0.00
8:53 am 08:53 Sunny 48 8.9 37 2.8 66 66 SE 10 17 30.37 1028 10 16 0.00 0.00
9:53 am 09:53 Sunny 54 12.2 40 4.4 59 59 SSE 9 15 30.36 1028 10 16 0.00 0.00
10:53 am 10:53 Sunny 59 15 39 3.9 48 48 S 12 19 30.34 1027 10 16 0.00 0.00
11:53 am 11:53 Sunny 62 16.7 43 6.1 50 50 S 13 20 30.30 1026 10 16 0.00 0.00
12:53 pm 12:53 Sunny 63 17.2 44 6.7 50 50 SSW 14 22 30.26 1025 10 16 0.00 0.00
1:53 pm 13:53 Sunny 66 18.9 46 7.8 49 49 S 14 22 30.23 1024 10 16 0.00 0.00
2:53 pm 14:53 Sunny 65 18.3 46 7.8 51 51 S 16 26 30.21 1023 10 16 0.00 0.00
3:53 pm 15:53 Partly Cloudy 65 18.3 46 7.8 51 51 S 16 26 30.21 1023 10 16 0.00 0.00
4:53 pm 16:53 Mostly Cloudy 62 16.7 46 7.8 56 56 SSE 9 15 30.21 1023 10 16 0.00 0.00
5:53 pm 17:53 Clear 60 15.6 45 7.2 58 58 S 10 17 30.21 1023 10 16 0.00 0.00
6:53 pm 18:53 Mostly Cloudy 59 15 43 6.1 56 56 S 13 20 30.21 1023 10 16 0.00 0.00
7:53 pm 19:53 Mostly Cloudy 60 15.6 43 6.1 53 53 SSE 13 20 30.20 1023 10 16 0.00 0.00
8:53 pm 20:53 Clear 58 14.4 42 5.6 56 56 SSE 15 24 30.17 1022 10 16 0.00 0.00
9:53 pm 21:53 Mostly Cloudy 58 14.4 43 6.1 58 58 SSE 8 13 30.18 1022 10 16 0.00 0.00
10:53 pm 22:53 Cloudy 58 14.4 44 6.7 60 60 SE 8 13 30.18 1022 10 16 0.00 0.00
11:50 pm 23:50 Cloudy with Nearby Thunderstorms 57 14 45 7 63 63 Calm 30.22 1023 5 8 0.00 0.00
11:53 pm 23:53 Cloudy with Nearby Thunderstorms 58 14.4 45 7.2 62 62 SSE 5 7 30.20 1023 5 8 0.01 0.25

Powered by AerisWeather